This is the latest recevied weather packets stored in our database for station/object W4FXD. If no packets are shown the sender has not sent any weather packets the latest 1 day(s).
| Time | Temp. | Humidity | Pressure | Rain* | Wind** | Luminosity | Snow |
|---|---|---|---|---|---|---|---|
| 1778026022 | 22.78° C | 45% | 1011.4 hPa | 0 mm | 0.89 m/s, 198° | 7 W/m² | - |
| 1778025720 | 22.78° C | 45% | 1011.4 hPa | 0 mm | 0.45 m/s, 184° | 7 W/m² | - |
| 1778025417 | 22.78° C | 45% | 1011.3 hPa | 0 mm | 1.34 m/s, 180° | 11 W/m² | - |
| 1778025115 | 22.78° C | 45% | 1011.5 hPa | 0 mm | 1.79 m/s, 181° | 16 W/m² | - |
| 1778024811 | 22.78° C | 46% | 1011.3 hPa | 0 mm | 0.89 m/s, 243° | 19 W/m² | - |
| 1778024508 | 22.78° C | 48% | 1011.3 hPa | 0 mm | 0.45 m/s, 152° | 22 W/m² | - |
| 1778024205 | 22.78° C | 47% | 1011.1 hPa | 0 mm | 0.45 m/s, 168° | 20 W/m² | - |
| 1778023903 | 23.33° C | 47% | 1010.8 hPa | 0 mm | 0.45 m/s, 111° | 24 W/m² | - |
| 1778023600 | 23.33° C | 48% | 1011 hPa | 0 mm | 0.89 m/s, 189° | 39 W/m² | - |
| 1778023298 | 23.33° C | 48% | 1011.1 hPa | 0 mm | 0.89 m/s, 193° | 55 W/m² | - |
| 1778022994 | 23.33° C | 48% | 1011 hPa | 0 mm | 0.89 m/s, 179° | 55 W/m² | - |
| 1778022693 | 23.33° C | 50% | 1010.9 hPa | 0 mm | 0.45 m/s, 148° | 55 W/m² | - |
| 1778022391 | 23.33° C | 49% | 1010.7 hPa | 0 mm | 0.45 m/s, 184° | 36 W/m² | - |
| 1778022086 | 23.33° C | 49% | 1011 hPa | 0 mm | 0.89 m/s, 182° | 44 W/m² | - |
| 1778021783 | 23.33° C | 50% | 1011 hPa | 0 mm | 1.79 m/s, 233° | 48 W/m² | - |
| 1778021479 | 23.33° C | 49% | 1010.9 hPa | 0 mm | 1.34 m/s, 198° | 57 W/m² | - |
| 1778021176 | 23.33° C | 51% | 1011.1 hPa | 0 mm | 0.89 m/s, 184° | 69 W/m² | - |
| 1778020874 | 23.33° C | 52% | 1011.1 hPa | 0 mm | 0.45 m/s, 176° | 83 W/m² | - |
| 1778020571 | 23.33° C | 52% | 1011 hPa | 0 mm | 1.79 m/s, 190° | 104 W/m² | - |
| 1778020267 | 23.33° C | 52% | 1011.3 hPa | 0 mm | 0 m/s | 124 W/m² | - |
| 1778019963 | 22.78° C | 53% | 1011.4 hPa | 0 mm | 0.45 m/s, 169° | 101 W/m² | - |
| 1778019659 | 22.78° C | 52% | 1011.2 hPa | 0 mm | 0 m/s | 91 W/m² | - |
| 1778019357 | 22.78° C | 53% | 1011.2 hPa | 0 mm | 0.45 m/s, 142° | 85 W/m² | - |
| 1778019053 | 22.78° C | 52% | 1011.4 hPa | 0 mm | 0 m/s | 110 W/m² | - |
| 1778018751 | 23.33° C | 52% | 1011.5 hPa | 0 mm | 0.89 m/s, 174° | 115 W/m² | - |
* Rain latest hour (hover to see other rain measurements)
** Current wind speed in m/s (hover to see current wind gust speed)